Regional Weather Roundup
Issued by NWS

Home | Current Version | Previous Version | Graphics & Text | Print | Product List | Glossary On
Versions: 1 2 3 4 5 6 7 8 9 10 11 12 13 14 15 16 17 18 19 20 21 22 23 24 25 26 27 28 29 30 31 32 33 34 35 36 37 38 39 40 41 42 43 44 45 46 47 48 49 50
000
ASUS43 KDTX 230310
RWRMI
MICHIGAN HOURLY REGIONAL WEATHER ROUNDUP
NATIONAL WEATHER SERVICE DETROIT/PONTIAC MI
1100 PM EDT TUE JUL 22 2014

NOTE: "FAIR" INDICATES FEW OR NO CLOUDS BELOW 12,000 FEET WITH NO
SIGNIFICANT WEATHER AND/OR OBSTRUCTION TO VISIBILITY.

MIZ047>049-052>055-059>063-066>070-074>076-081>083-230400-
SOUTHEAST LOWER MICHIGAN

CITY           SKY/WX    TMP DP  RH WIND       PRES   REMARKS
ADRIAN         PTCLDY    77  67  71 SW3       29.97F
ALMA           CLOUDY    79  68  69 SW6       29.92S
ANN ARBOR      CLEAR     78  65  63 SW6       29.95F
BAD AXE        CLOUDY    80  67  65 SW7       29.91R
CARO           CLOUDY    80  69  69 SW6       29.91S
DETROIT CITY   PTCLDY    85  65  51 SW9       29.93F
DETROIT        MOCLDY    80  67  64 S8        29.95F
FLINT          CLOUDY    82  67  60 SW7       29.94R
GROSSE ILE     CLEAR     81  66  61 S6        29.93F
HILLSDALE      CLOUDY    79  67  66 SW5       29.99S
HOWELL         CLOUDY    79  66  63 SW6       29.95R

CITY           SKY/WX    TMP DP  RH WIND       PRES   REMARKS
JACKSON        CLOUDY    80  67  64 SW8       29.96F
LAMBERTVILLE   CLEAR     81  64  57 SW5       29.97S
LANSING        CLOUDY    81  68  64 SW10      29.95R
LAPEER         CLOUDY    81  66  61 SW5       29.94R
MASON          CLOUDY    79  67  67 SW6       29.96R
MONROE         CLEAR     79  66  65 S5        29.94F
MT. CLEMENS    CLEAR     82  67  59 SW9       29.92F
PONTIAC        MOCLDY    80  66  62 SW7       29.94F
PORT HOPE        N/A     80  67  64 SW6       29.87S
PORT HURON     CLOUDY    77  68  73 SW3       29.93S
TRI CITIES     PTCLDY    80  69  69 SW8       29.91S
TROY           PTCLDY    83  65  54 SW8       29.95S
SAGINAW HB     MOCLDY    81  68  65 SW6       29.91S
$$
MIZ043>046-050>051-056>058-064>065-071>073-077>080-230400-
SOUTHWEST LOWER MICHIGAN

CITY           SKY/WX    TMP DP  RH WIND       PRES   REMARKS
BATTLE CREEK   CLOUDY    81  68  64 SW9       29.97R
BENTON HARBOR  CLOUDY    80  71  74 SW7       29.95R
BIG RAPIDS     MOCLDY    77  68  74 NW9G17    29.93S
COLDWATER      CLOUDY    80  69  70 SW7       29.97F
FREMONT        FAIR      67  67  99 W6        29.95R
HOLLAND        CLEAR     82  73  74 SW13      29.96R
GRAND RAPIDS   CLOUDY    82  72  71 W13       29.97R THUNDER
IONIA          MOCLDY    79  69  71 W7        29.94R
KALAMAZOO      MOCLDY    80  69  69 SW9       29.97R
LUDINGTON      CLOUDY    69  66  90 N13       29.99R
MARSHALL       CLOUDY    79  68  69 SW6       29.96S
MOUNT PLEASANT MOCLDY    80  69  69 SW12      29.90F
MUSKEGON       CLOUDY    73  70  90 W5        29.94F
SOUTH HAVEN    CLOUDY    82  74  75 SW10G20   29.95R
$$
MIZ016>042-230400-
NORTHERN LOWER MICHIGAN

CITY           SKY/WX    TMP DP  RH WIND       PRES   REMARKS
ALPENA         PTCLDY    70  65  84 NW6       29.92R
BEAVER ISLAND  CLOUDY    61  57  88 NW14G25   30.00R
BELLAIRE       CLOUDY    64  57  77 N8        30.00R
CADILLAC       CLOUDY    65  62  91 N13G21    30.00R
CHARLEVOIX     CLOUDY    63  58  84 NW8G20    30.03R
FRANKFORT      CLOUDY    66  56  71 N12G23    30.02R
GAYLORD        CLOUDY    63  56  78 NW9G21    29.99R
GRAYLING       CLOUDY    69  67  92 NW12G20   29.98R
HARBOR SPRINGS MOCLDY    63  57  82 NW9G20    29.97R
HOUGHTON LAKE  CLOUDY    70  66  87 NW14G22   29.98R
MANISTEE       MOCLDY    70  61  73 N17G25    30.01R
OSCODA         LGT RAIN  78  69  73 NW8       29.89R
PELLSTON       CLOUDY    62  57  83 NW20G25   29.96R
ROGERS CITY    PTCLDY    66  59  77 W7G16     29.93R
TRAVERSE CITY  CLOUDY    65  56  72 N13G25    30.01R
$$
MIZ007>008-015-230400-
EASTERN UPPER MICHIGAN

CITY           SKY/WX    TMP DP  RH WIND       PRES   REMARKS
KINROSS        CLOUDY    55  54  94 NW21      29.94R
MACKINAC ISLAN CLOUDY    61  57  87 NW13G22   29.94R
NEWBERRY       CLOUDY    56  54  94 NW12G18   29.99R
S. S. MARIE    CLOUDY    53  51  93 W9        29.94R
MUNISING         N/A     56  50  80 NW15      30.05R
$$
MIZ004>006-011>014-085-230400-
CENTRAL UPPER MICHIGAN

CITY           SKY/WX    TMP DP  RH WIND       PRES   REMARKS
MANISTIQUE     CLOUDY    61  55  80 NW16G23   30.02R
ESCANABA       PTCLDY    64  54  68 N6G17     30.03S
MENOMINEE      MOCLDY    66  55  68 N14G20    30.03R
SAWYER-GWINN   MOCLDY    61  54  76 N13       30.08S
$$
MIZ001>003-009>011-084-230400-
WESTERN UPPER MICHIGAN

CITY           SKY/WX    TMP DP  RH WIND       PRES   REMARKS
IRON MOUNTAIN  CLEAR     61  55  81 NW7       30.08R
HOUGHTON       CLEAR     55  52  89 NW7       30.10R
COPPER HARBOR    N/A     58  53  84 N7        30.08R
$$

ABBREVIATIONS USED IN REMARKS
   TC - TEMPERATURE IN CELSIUS
  WCI - WIND CHILL INDEX
   HX - HEAT INDEX
  VSB - VISIBILITY




USA.gov is the U.S. government's official web portal to all federal, state and local government web resources and services.